RYR277 EFHK-ESSA

Flight info

Callsign RYR277
Flight time N/A
Altitude 33000
Route ADIVO Y365 POGOK DCT RUNGA N872 XILAN
Aircraft B738/M-SDE2E3FGHIRWXY/LB1

Departure

Time 2026-05-06 17:43
Airport Helsinki Vantaa Airport (EFHK)

Arrival

Time N/A
Airport Stockholm-Arlanda Airport (ESSA)
Time Latitude Longitude Altitude Speed Heading
2026-05-06 17:19 60.31873 24.96539 186 ft 0 kts 137°
2026-05-06 17:29 60.31874 24.96539 186 ft 0 kts 137°
2026-05-06 17:30 60.31882 24.96523 185 ft 2 kts 137°
2026-05-06 17:30 60.31892 24.96505 184 ft 2 kts 137°
2026-05-06 17:30 60.31902 24.96486 184 ft 2 kts 137°
2026-05-06 17:30 60.31918 24.96470 184 ft 3 kts 192°
2026-05-06 17:31 60.31931 24.96489 184 ft 2 kts 235°
2026-05-06 17:31 60.31939 24.96506 184 ft 1 kts 221°
2026-05-06 17:31 60.31942 24.96513 184 ft 1 kts 226°
2026-05-06 17:33 60.31920 24.96466 184 ft 13 kts 226°
2026-05-06 17:34 60.31860 24.96316 182 ft 12 kts 249°
2026-05-06 17:34 60.31866 24.96148 180 ft 14 kts 302°
2026-05-06 17:34 60.31932 24.96016 180 ft 17 kts 318°
2026-05-06 17:34 60.32038 24.95820 181 ft 22 kts 317°
2026-05-06 17:35 60.32138 24.95635 187 ft 19 kts 317°
2026-05-06 17:35 60.32224 24.95475 190 ft 17 kts 317°
2026-05-06 17:35 60.32318 24.95305 192 ft 16 kts 321°
2026-05-06 17:36 60.32537 24.95143 192 ft 19 kts 341°
2026-05-06 17:36 60.32661 24.95061 192 ft 19 kts 342°
2026-05-06 17:36 60.32778 24.94985 196 ft 16 kts 342°
2026-05-06 17:36 60.32877 24.94917 199 ft 14 kts 335°
2026-05-06 17:37 60.32899 24.94890 199 ft 1 kts 324°
2026-05-06 17:37 60.32901 24.94889 199 ft 0 kts 325°
2026-05-06 17:39 60.32901 24.94888 199 ft 0 kts 325°
2026-05-06 17:39 60.32919 24.94859 199 ft 9 kts 320°
2026-05-06 17:39 60.32991 24.94730 200 ft 16 kts 317°
2026-05-06 17:40 60.33047 24.94622 200 ft 7 kts 317°
2026-05-06 17:40 60.33055 24.94608 200 ft 0 kts 318°
2026-05-06 17:40 60.33080 24.94562 200 ft 11 kts 318°
2026-05-06 17:40 60.33127 24.94472 201 ft 6 kts 301°
2026-05-06 17:41 60.33122 24.94398 201 ft 6 kts 227°
2026-05-06 17:41 60.33117 24.94387 201 ft 0 kts 225°
2026-05-06 17:42 60.33101 24.94354 202 ft 14 kts 226°
2026-05-06 17:42 60.32841 24.93790 199 ft 101 kts 228°
2026-05-06 17:42 60.32239 24.92469 321 ft 160 kts 227°
2026-05-06 17:43 60.31553 24.90922 1365 ft 155 kts 231°
2026-05-06 17:43 60.30871 24.89355 2112 ft 165 kts 231°
2026-05-06 17:43 60.30126 24.87634 2766 ft 174 kts 232°
2026-05-06 17:43 60.29608 24.85451 3198 ft 194 kts 266°
2026-05-06 17:44 60.29918 24.82955 3748 ft 209 kts 304°
2026-05-06 17:44 60.30844 24.80765 4409 ft 222 kts 311°
2026-05-06 17:44 60.31709 24.78226 5088 ft 238 kts 296°
2026-05-06 17:44 60.31995 24.74905 5750 ft 257 kts 270°
2026-05-06 17:45 60.31820 24.71254 6446 ft 273 kts 263°
2026-05-06 17:45 60.31493 24.67623 7687 ft 265 kts 260°
2026-05-06 17:45 60.31130 24.64071 8471 ft 274 kts 259°
2026-05-06 17:45 60.30801 24.60826 9351 ft 275 kts 260°
2026-05-06 17:46 60.30450 24.57247 10333 ft 275 kts 260°
2026-05-06 17:46 60.30091 24.53485 11087 ft 286 kts 261°